Location: Trois-Rivi�res
(46.3500°N, 72.5500°W)
Time: 08:24:50
(UTC-04:00)

ISS - Pass Details

Date: 16 October 2017
Orbit: 401 x 408 km, 51.6° (Epoch: 22 October)

Event Time Altitude Azimuth Distance (km) Brightness Sun altitude
Rises 19:18:18 0° 283° (WNW) 2,324 1.8 -14.0°
Reaches altitude 10° 19:21:31 10° 249° (WSW) 1,461 0.1 -14.6°
Maximum altitude 19:22:42 12° 227° (SW) 1,369 -0.5 -14.8°
Drops below altitude 10° 19:23:53 10° 206° (SSW) 1,458 -0.7 -15.0°
Sets 19:27:05 0° 172° (S) 2,313 -0.1 -15.5°
